Location: Unspecified
(0.0000°N, 0.0000°E)
Time: 18:30:20
(UTC+00:00)

HO-68 - Pass Details

Date: 08 June 2023
Orbit: 1193 x 1204 km, 100.3° (Epoch: 28 September)

Event Time Altitude Azimuth Distance (km) Brightness Sun altitude
Rises 01:47:21 0° 45° (NE) 4,089 ? -55.1°
Reaches altitude 10° 01:50:49 10° 62° (ENE) 3,126 ? -54.5°
Enters shadow 01:51:33 12° 66° (ENE) 2,959 ? -54.4°
